STARLINK-2332

decayed
NORAD ID: 47876 Int'l Des: 2021-021 Owner: SPXS Country: US Constellation: starlink
LEOCIRCULAR
グループ

STARLINK-2332について

説明を読み込み中...

高度履歴

Altitude vs Time

uPlot chart will show altitude changes over time

軌道要素

1 47876U 21021S 25048.79061936 .17451446 12469-4 55708-3 0 9994
2 47876 53.0250 153.4428 0005319 256.5404 245.5922 16.44612550218330
Epoch: Feb 17, 2025 • Age: 5032 hours

現在のステータス

Position data unavailable
打ち上げ日 Mar 14, 2021
運用期間 4.5 years
落下予定日 Feb 18, 2025
タイプ internet

技術仕様

分類 Payload
質量 260.00 kg
乾燥質量 248.00 kg
総質量 260.00 kg
長さ 0.20 m
直径 2.80 m
スパン 9.00 m
形状 Box + pan
製造者 SPXS
バスタイプ Starlink
フェーズステータス Unknown Transfer Status
所有者/国 SPXS/US

大規模コンステレーション

Loading constellations...